Total_Precipitation_Accumulation
0.83 0.78 0.75 0.72 0.69 0.69 0.68 0.62 0.55 0.47 0.39 0.36 0.34 0.30 0.29 0.27 0.26 0.24 0.20 0.20 0.20 0.24 0.37 0.60 0.86 1.09 1.29 1.46 1.57 1.47 1.41 1.27 1.02 0.87 0.84 0.93 0.98 1.05 1.06 1.13 1.13 1.03 1.01
0.82 0.80 0.76 0.74 0.69 0.66 0.67 0.65 0.60 0.53 0.44 0.37 0.32 0.29 0.28 0.26 0.27 0.27 0.25 0.26 0.24 0.24 0.31 0.45 0.65 0.96 1.22 1.40 1.59 1.71 1.58 1.54 1.39 1.11 0.95 0.92 0.96 1.01 1.05 1.12 1.19 1.18 1.10
0.78 0.82 0.82 0.77 0.70 0.64 0.63 0.65 0.67 0.67 0.59 0.49 0.41 0.34 0.29 0.26 0.24 0.24 0.26 0.28 0.29 0.29 0.30 0.38 0.48 0.71 1.04 1.32 1.51 1.75 1.80 1.66 1.68 1.55 1.29 1.09 1.02 1.03 1.08 1.14 1.20 1.28 1.23
0.80 0.84 0.86 0.82 0.76 0.71 0.66 0.63 0.62 0.64 0.63 0.59 0.54 0.49 0.42 0.36 0.28 0.23 0.23 0.25 0.31 0.33 0.33 0.34 0.40 0.53 0.82 1.15 1.47 1.72 2.11 1.98 1.86 1.92 1.86 1.53 1.25 1.16 1.18 1.23 1.28 1.34 1.37
0.78 0.83 0.87 0.86 0.83 0.81 0.76 0.72 0.65 0.59 0.57 0.56 0.53 0.50 0.45 0.43 0.41 0.37 0.30 0.25 0.26 0.32 0.36 0.37 0.40 0.42 0.58 0.91 1.25 1.59 2.09 2.44 2.26 2.18 2.25 2.14 1.78 1.48 1.39 1.41 1.45 1.48 1.54
0.80 0.79 0.82 0.84 0.87 0.85 0.81 0.76 0.71 0.63 0.57 0.54 0.55 0.53 0.46 0.40 0.38 0.37 0.35 0.31 0.27 0.27 0.36 0.42 0.43 0.40 0.42 0.58 0.89 1.33 1.78 2.28 2.55 2.45 2.41 2.46 2.33 2.04 1.80 1.68 1.65 1.71 1.75
0.88 0.85 0.82 0.81 0.83 0.83 0.76 0.71 0.71 0.71 0.67 0.64 0.67 0.64 0.56 0.47 0.43 0.40 0.38 0.35 0.30 0.27 0.30 0.40 0.47 0.44 0.39 0.42 0.54 0.81 1.30 1.93 2.49 2.73 2.73 2.65 2.63 2.46 2.19 1.98 1.84 1.89 1.98
0.92 0.90 0.84 0.84 0.82 0.80 0.76 0.70 0.67 0.69 0.68 0.69 0.72 0.75 0.67 0.60 0.50 0.39 0.38 0.35 0.30 0.29 0.31 0.34 0.42 0.48 0.46 0.41 0.37 0.48 0.76 1.33 2.03 2.60 2.91 2.98 2.96 2.91 2.65 2.37 2.15 2.11 2.20
0.92 0.95 0.89 0.84 0.85 0.85 0.80 0.72 0.66 0.66 0.66 0.61 0.60 0.79 0.84 0.63 0.44 0.36 0.35 0.34 0.33 0.32 0.31 0.33 0.37 0.44 0.50 0.49 0.44 0.45 0.52 0.84 1.45 2.20 2.74 3.04 3.16 3.31 3.22 2.85 2.58 2.43 2.45
0.91 0.89 0.91 0.90 0.85 0.83 0.79 0.74 0.67 0.64 0.66 0.66 0.61 0.60 0.65 0.64 0.64 0.47 0.32 0.31 0.33 0.35 0.34 0.33 0.35 0.41 0.47 0.54 0.55 0.57 0.58 0.65 1.03 1.60 2.30 2.91 3.29 3.59 3.80 3.41 2.97 2.76 2.71
0.91 0.91 0.88 0.90 0.89 0.83 0.77 0.76 0.76 0.73 0.71 0.70 0.65 0.59 0.55 0.51 0.53 0.63 0.44 0.31 0.33 0.33 0.35 0.38 0.39 0.42 0.46 0.52 0.58 0.62 0.69 0.70 0.91 1.28 1.77 2.49 3.13 3.72 4.25 4.10 3.41 2.94 2.77
0.95 0.88 0.87 0.85 0.86 0.82 0.75 0.73 0.75 0.78 0.78 0.73 0.67 0.62 0.63 0.62 0.54 0.59 0.55 0.38 0.36 0.34 0.35 0.40 0.45 0.47 0.49 0.53 0.56 0.67 0.73 0.78 0.88 1.08 1.35 1.85 2.52 3.15 3.97 4.35 3.86 3.22 2.83
1.00 0.92 0.86 0.82 0.80 0.79 0.78 0.75 0.76 0.76 0.77 0.81 0.78 0.69 0.63 0.59 0.57 0.63 0.69 0.57 0.50 0.41 0.41 0.43 0.44 0.50 0.56 0.58 0.60 0.67 0.69 0.77 0.88 1.01 1.13 1.32 1.76 2.48 3.31 4.20 4.45 3.81 3.24
0.93 0.94 0.93 0.87 0.78 0.75 0.78 0.82 0.81 0.78 0.78 0.82 0.80 0.76 0.70 0.60 0.61 0.69 0.78 0.88 0.83 0.58 0.48 0.44 0.41 0.45 0.53 0.62 0.64 0.68 0.65 0.76 0.85 0.96 1.05 1.15 1.30 1.74 2.56 3.52 4.46 4.53 3.86
0.93 0.99 0.99 0.98 0.91 0.85 0.80 0.81 0.82 0.81 0.84 0.83 0.82 0.81 0.82 0.74 0.69 0.70 0.75 0.91 1.18 1.02 0.60 0.44 0.42 0.45 0.52 0.61 0.70 0.69 0.67 0.73 0.81 0.93 1.06 1.14 1.21 1.41 1.80 2.44 3.33 4.28 4.48
0.89 1.01 1.06 1.02 1.02 0.99 0.93 0.87 0.83 0.81 0.86 0.88 0.88 0.89 0.87 0.87 0.85 0.80 0.80 0.85 1.00 1.14 0.85 0.43 0.39 0.43 0.56 0.66 0.78 0.78 0.78 0.85 0.85 0.93 1.02 1.08 1.12 1.24 1.45 1.82 2.39 3.26 4.13
0.85 0.93 1.04 1.07 1.07 1.07 1.03 1.01 0.95 0.92 0.91 0.91 0.95 1.00 0.98 0.96 1.03 0.98 0.92 0.89 0.90 1.01 1.02 0.53 0.40 0.43 0.62 0.82 0.87 0.88 0.93 0.88 0.82 0.86 0.93 0.99 1.06 1.16 1.35 1.58 1.91 2.45 3.28
0.86 0.89 0.98 1.11 1.14 1.13 1.10 1.08 1.06 1.09 1.14 1.09 1.02 1.04 1.07 1.08 1.11 1.09 1.08 0.99 0.88 0.84 0.94 0.78 0.53 0.54 0.67 0.83 0.89 0.93 0.99 0.97 0.89 0.91 0.95 1.01 1.08 1.18 1.34 1.50 1.70 1.98 2.59
0.91 0.89 0.97 1.11 1.19 1.21 1.18 1.10 1.09 1.14 1.23 1.31 1.28 1.25 1.19 1.18 1.19 1.14 1.14 1.10 1.00 0.90 0.88 0.90 0.72 0.63 0.71 0.81 0.93 1.00 1.04 1.04 1.04 1.07 1.02 1.04 1.13 1.20 1.30 1.42 1.55 1.75 2.03
0.92 0.92 0.93 1.01 1.13 1.24 1.32 1.33 1.34 1.28 1.29 1.33 1.35 1.37 1.34 1.34 1.30 1.26 1.26 1.22 1.19 1.18 1.13 1.12 0.99 0.83 0.80 0.83 1.01 1.19 1.26 1.13 1.12 1.11 1.11 1.11 1.19 1.24 1.29 1.28 1.25 1.42 1.68
0.93 0.92 0.92 0.91 1.00 1.27 1.62 1.61 1.54 1.47 1.35 1.25 1.18 1.19 1.26 1.41 1.48 1.56 1.61 1.51 1.47 1.58 1.54 1.47 1.28 1.10 0.99 1.04 1.15 1.25 1.45 1.38 1.27 1.19 1.19 1.12 1.14 1.14 1.14 1.18 1.20 1.34 1.55
1.05 0.99 0.94 0.91 0.94 1.14 1.59 1.66 1.40 1.20 1.08 1.06 1.04 0.97 0.98 1.18 1.29 1.43 1.58 1.61 1.69 1.85 1.94 1.87 1.61 1.36 1.11 1.06 1.17 1.40 1.61 1.77 1.69 1.31 1.30 1.30 1.26 1.29 1.19 1.14 1.20 1.28 1.43
1.10 1.07 0.98 0.91 0.87 0.94 1.34 1.46 1.27 1.00 0.86 0.83 0.86 0.86 0.86 0.93 1.08 1.07 1.24 1.36 1.44 1.61 1.84 1.95 1.91 1.50 1.24 1.13 1.39 1.58 1.64 1.77 1.68 1.45 1.51 1.69 1.50 1.42 1.31 1.27 1.28 1.20 1.29
1.15 1.10 1.03 0.94 0.89 0.84 1.18 1.39 1.27 0.93 0.78 0.71 0.71 0.70 0.71 0.76 0.91 1.09 1.21 1.23 1.17 1.27 1.55 1.76 1.91 1.73 1.51 1.45 1.69 1.98 2.10 2.11 1.91 1.71 1.68 2.00 1.78 1.62 1.52 1.41 1.33 1.18 1.19
1.07 1.06 1.01 0.92 0.89 0.86 1.06 1.40 1.40 1.02 0.85 0.72 0.69 0.69 0.65 0.65 0.91 1.17 1.19 1.14 1.04 1.06 1.25 1.54 1.76 1.84 1.89 2.00 2.16 2.46 2.64 2.59 2.43 2.07 1.85 2.01 2.02 1.90 1.76 1.66 1.47 1.27 1.16
1.02 1.04 1.02 0.94 0.88 0.84 0.99 1.38 1.57 1.14 0.95 0.83 0.75 0.71 0.79 0.84 1.03 1.12 1.06 1.12 1.17 1.06 1.02 1.10 1.21 1.33 1.42 1.57 1.91 2.19 2.43 2.57 2.54 2.48 2.05 1.98 2.11 2.16 2.37 1.98 1.57 1.24 1.10